Time,TemperatureF,DewpointF,PressureIn,WindDirection,WindDirectionDegrees,WindSpeedMPH,WindSpeedGustMPH,Humidity,HourlyPrecipIn,Conditions,Clouds,dailyrainin,SoftwareType,DateUTC
2013-10-31 00:00:00,48.0,-99.9,-100.00,North,-999,4.0,11.0,30,-99.99,,,-99.99,,2013-10-31 06:00:00,
2013-10-31 00:22:00,-999.0,-99.9,-100.00,North,-999,4.0,11.0,30,-99.99,,,-99.99,,2013-10-31 06:22:00,
2013-10-31 00:42:00,48.0,-99.9,-100.00,North,-999,4.0,11.0,30,-99.99,,,-99.99,,2013-10-31 06:42:00,
2013-10-31 00:53:00,48.0,-99.9,-100.00,North,-999,4.0,11.0,30,-99.99,,,-99.99,,2013-10-31 06:53:00,
2013-10-31 18:00:00,61.0,-99.9,-100.00,North,-999,4.0,8.0,16,-99.99,,,-99.99,,2013-11-01 00:00:00,
2013-10-31 18:22:00,-999.0,-99.9,-100.00,North,-999,4.0,8.0,16,-99.99,,,-99.99,,2013-11-01 00:22:00,
2013-10-31 18:42:00,61.0,-99.9,-100.00,North,-999,4.0,8.0,16,-99.99,,,-99.99,,2013-11-01 00:42:00,
2013-10-31 18:52:00,61.0,-99.9,-100.00,North,-999,4.0,8.0,16,-99.99,,,-99.99,,2013-11-01 00:52:00,
2013-10-31 19:00:00,56.0,-99.9,-100.00,North,-999,5.0,12.0,16,-99.99,,,-99.99,,2013-11-01 01:00:00,
2013-10-31 19:42:00,56.0,-99.9,-100.00,North,-999,5.0,12.0,16,-99.99,,,-99.99,,2013-11-01 01:42:00,
2013-10-31 19:52:00,56.0,-99.9,-100.00,North,-999,5.0,12.0,16,-99.99,,,-99.99,,2013-11-01 01:52:00,
2013-10-31 20:00:00,51.0,-99.9,-100.00,North,-999,4.0,6.0,19,-99.99,,,-99.99,,2013-11-01 02:00:00,
2013-10-31 20:22:00,-999.0,-99.9,-100.00,North,-999,4.0,6.0,19,-99.99,,,-99.99,,2013-11-01 02:22:00,
2013-10-31 20:52:00,51.0,-99.9,-100.00,North,-999,4.0,6.0,19,-99.99,,,-99.99,,2013-11-01 02:52:00,
2013-10-31 21:00:00,49.0,-99.9,-100.00,North,-999,3.0,7.0,22,-99.99,,,-99.99,,2013-11-01 03:00:00,
2013-10-31 21:22:00,-999.0,-99.9,-100.00,North,-999,3.0,7.0,22,-99.99,,,-99.99,,2013-11-01 03:22:00,
2013-10-31 21:45:00,49.0,-99.9,-100.00,North,-999,3.0,7.0,22,-99.99,,,-99.99,,2013-11-01 03:45:00,
2013-10-31 21:54:00,49.0,-99.9,-100.00,North,-999,3.0,7.0,22,-99.99,,,-99.99,,2013-11-01 03:54:00,
2013-10-31 22:24:00,-999.0,-99.9,-100.00,North,-999,3.0,5.0,28,-99.99,,,-99.99,,2013-11-01 04:24:00,
2013-10-31 23:23:00,-999.0,-99.9,-100.00,North,-999,2.0,5.0,28,-99.99,,,-99.99,,2013-11-01 05:23:00,